| time (UTC) | temp F | wind direction | speed MPH | gust MPH | rain 1hr in | rain 24hr in | rain mn in | humidity % | barometer mb |
| 20260503183058 | 60 | 261 | 3.0 | 6.0 | 0.00 | 0.00 | 0.00 | 66 | 1012.9 |
| 20260503181548 | 59 | 179 | 2.0 | 8.0 | 0.00 | 0.00 | 0.00 | 67 | 1012.8 |
| 20260503180055 | 59 | 251 | 1.0 | 6.0 | 0.00 | 0.00 | 0.00 | 70 | 1013.0 |
| 20260503174548 | 58 | 109 | 3.0 | 9.0 | 0.00 | 0.00 | 0.00 | 70 | 1013.0 |
| 20260503173111 | 58 | 248 | 5.0 | 13.0 | 0.00 | 0.00 | 0.00 | 71 | 1012.9 |
| 20260503171554 | 59 | 229 | 4.0 | 9.0 | 0.00 | 0.00 | 0.00 | 70 | 1012.8 |
| 20260503081550 | 55 | 299 | 2.0 | 5.0 | 0.00 | 0.00 | 0.00 | 77 | 1011.7 |
| 20260503071602 | 55 | 346 | 2.0 | 5.0 | 0.00 | 0.00 | 0.00 | 77 | 1011.9 |
| 20260503054543 | 56 | 28 | 3.0 | 9.0 | 0.00 | 0.00 | 0.00 | 76 | 1012.2 |
| 20260503053046 | 56 | 19 | 2.0 | 7.0 | 0.00 | 0.00 | 0.00 | 76 | 1012.3 |
| 20260503051555 | 56 | 347 | 3.0 | 6.0 | 0.00 | 0.00 | 0.00 | 76 | 1012.3 |
| 20260503050048 | 56 | 26 | 6.0 | 10.0 | 0.00 | 0.00 | 0.00 | 76 | 1012.3 |
| 20260503044544 | 56 | 351 | 2.0 | 9.0 | 0.00 | 0.00 | 0.00 | 76 | 1012.1 |
| 20260503043041 | 56 | 360 | 2.0 | 7.0 | 0.00 | 0.00 | 0.00 | 76 | 1012.1 |
| 20260503041548 | 56 | 317 | 3.0 | 8.0 | 0.00 | 0.00 | 0.00 | 75 | 1012.1 |
| 20260503040049 | 56 | 9 | 6.0 | 10.0 | 0.00 | 0.00 | 0.00 | 75 | 1011.9 |
| 20260503034549 | 57 | 9 | 5.0 | 11.0 | 0.00 | 0.00 | 0.00 | 74 | 1011.7 |
| 20260503033046 | 57 | 325 | 4.0 | 11.0 | 0.00 | 0.00 | 0.00 | 74 | 1011.6 |
| 20260503031543 | 57 | 22 | 5.0 | 10.0 | 0.00 | 0.00 | 0.00 | 74 | 1011.4 |
| 20260503030050 | 58 | 360 | 4.0 | 10.0 | 0.00 | 0.00 | 0.00 | 74 | 1011.3 |
| 20260503024547 | 58 | 17 | 4.0 | 14.0 | 0.00 | 0.00 | 0.00 | 76 | 1011.1 |
| 20260503023048 | 58 | 19 | 7.0 | 14.0 | 0.00 | 0.00 | 0.00 | 75 | 1011.0 |
| 20260503021549 | 59 | 9 | 5.0 | 15.0 | 0.00 | 0.00 | 0.00 | 73 | 1010.9 |
| 20260503020050 | 59 | 360 | 7.0 | 13.0 | 0.00 | 0.00 | 0.00 | 73 | 1010.9 |
| 20260503014619 | 60 | 345 | 7.0 | 13.0 | 0.00 | 0.00 | 0.00 | 73 | 1010.9 |
| 20260503013049 | 60 | 5 | 8.0 | 12.0 | 0.00 | 0.00 | 0.00 | 73 | 1010.9 |
| 20260503011550 | 61 | 5 | 7.0 | 14.0 | 0.00 | 0.00 | 0.00 | 72 | 1011.0 |
| 20260503010054 | 61 | 328 | 7.0 | 13.0 | 0.00 | 0.00 | 0.00 | 72 | 1011.0 |
| 20260503004600 | 62 | 11 | 9.0 | 15.0 | 0.00 | 0.00 | 0.00 | 71 | 1010.9 |
| 20260503003053 | 62 | 34 | 7.0 | 14.0 | 0.00 | 0.00 | 0.00 | 70 | 1011.0 |
| 20260503001550 | 63 | 322 | 7.0 | 16.0 | 0.00 | 0.00 | 0.00 | 70 | 1011.0 |
| 20260503000045 | 63 | 347 | 7.0 | 18.0 | 0.00 | 0.00 | 0.00 | 68 | 1011.0 |
| 20260502234547 | 64 | 333 | 7.0 | 16.0 | 0.00 | 0.00 | 0.00 | 68 | 1010.9 |
| 20260502233052 | 65 | 5 | 7.0 | 14.0 | 0.00 | 0.00 | 0.00 | 66 | 1011.0 |
| 20260502231549 | 65 | 360 | 6.0 | 13.0 | 0.00 | 0.00 | 0.00 | 66 | 1011.2 |
| 20260502230042 | 66 | 34 | 4.0 | 12.0 | 0.00 | 0.00 | 0.00 | 66 | 1011.3 |
| 20260502224602 | 65 | 5 | 7.0 | 13.0 | 0.00 | 0.00 | 0.00 | 66 | 1011.5 |
| 20260502223047 | 66 | 17 | 5.0 | 12.0 | 0.00 | 0.00 | 0.00 | 65 | 1011.6 |
| 20260502221552 | 66 | 342 | 5.0 | 14.0 | 0.00 | 0.00 | 0.00 | 66 | 1011.9 |
| 20260502220051 | 67 | 317 | 5.0 | 13.0 | 0.00 | 0.00 | 0.00 | 65 | 1012.0 |
| 20260502214549 | 66 | 295 | 4.0 | 11.0 | 0.00 | 0.00 | 0.00 | 66 | 1012.2 |
| 20260502213103 | 66 | 274 | 4.0 | 12.0 | 0.00 | 0.00 | 0.00 | 66 | 1012.3 |
| 20260502211559 | 66 | 319 | 5.0 | 14.0 | 0.00 | 0.00 | 0.00 | 67 | 1012.3 |
| 20260502210043 | 66 | 360 | 7.0 | 14.0 | 0.00 | 0.00 | 0.00 | 65 | 1012.5 |
| 20260502204549 | 67 | 0 | 1.0 | 7.0 | 0.00 | 0.00 | 0.00 | 65 | 1012.8 |
| 20260502203058 | 66 | 82 | 3.0 | 7.0 | 0.00 | 0.00 | 0.00 | 65 | 1013.0 |
| 20260502201552 | 65 | 173 | 5.0 | 9.0 | 0.00 | 0.00 | 0.00 | 66 | 1013.2 |
| 20260502200043 | 65 | 120 | 3.0 | 9.0 | 0.00 | 0.00 | 0.00 | 66 | 1013.4 |
| 20260502194559 | 64 | 164 | 3.0 | 7.0 | 0.00 | 0.00 | 0.00 | 69 | 1013.5 |
| 20260502193043 | 63 | 352 | 2.0 | 8.0 | 0.00 | 0.00 | 0.00 | 71 | 1013.6 |
| 20260502191546 | 63 | 155 | 1.0 | 7.0 | 0.00 | 0.00 | 0.00 | 72 | 1013.8 |
| 20260502190044 | 61 | 51 | 2.0 | 6.0 | 0.00 | 0.00 | 0.00 | 73 | 1013.9 |
| 20260502184552 | 61 | 63 | 1.0 | 6.0 | 0.00 | 0.00 | 0.00 | 75 | 1013.8 |